timestamp,surface_pressure_avg,surface_temp_avg,battery_voltage,lat,long
2023-12-04 00:09:00+00:00,246.1847,6.6,11.93,47.84626,-54.09684
2023-12-04 00:19:00+00:00,238.7214,6.6,11.93,47.84626,-54.09684
2023-12-04 00:29:00+00:00,239.0681,6.6,11.93,47.84626,-54.09684
2023-12-04 00:39:00+00:00,249.5697,6.69,11.93,47.84626,-54.09684
2023-12-04 00:49:00+00:00,255.4298,6.7,11.93,47.84626,-54.09684
2023-12-04 00:59:00+00:00,253.0215,6.7,11.93,47.84626,-54.09684
2023-12-04 01:09:00+00:00,258.7998,6.75,11.93,47.84626,-54.09684
2023-12-04 01:19:00+00:00,271.4981,6.79,11.93,47.84626,-54.09684
2023-12-04 01:29:00+00:00,272.4699,6.8,11.93,47.84626,-54.09684
2023-12-04 01:39:00+00:00,265.6896,6.79,11.93,47.84626,-54.09684
2023-12-04 01:49:00+00:00,272.3714,6.79,11.93,47.84626,-54.09684
2023-12-04 01:59:00+00:00,276.9448,6.8,11.93,47.84626,-54.09684
2023-12-04 02:09:00+00:00,278.8864,6.8,11.93,47.84626,-54.09684
2023-12-04 02:19:00+00:00,285.0096,6.8,11.93,47.84626,-54.09684
2023-12-04 02:29:00+00:00,299.6464,6.8,11.93,47.84626,-54.09684
2023-12-04 02:39:00+00:00,311.1764,6.8,11.93,47.84626,-54.09684
2023-12-04 02:49:00+00:00,311.573,6.8,11.93,47.84626,-54.09684
2023-12-04 02:59:00+00:00,312.6247,6.8,11.93,47.84626,-54.09684
2023-12-04 03:09:00+00:00,310.5397,6.8,11.93,47.84626,-54.09684
2023-12-04 03:19:00+00:00,309.683,6.83,11.86,47.84626,-54.09684
2023-12-04 03:29:00+00:00,306.4297,6.82,11.86,47.84626,-54.09684
2023-12-04 03:39:00+00:00,308.058,6.83,11.86,47.84626,-54.09684
2023-12-04 03:49:00+00:00,306.103,6.85,11.86,47.84626,-54.09684
2023-12-04 03:59:00+00:00,303.2697,6.85,11.86,47.84626,-54.09684
2023-12-04 04:09:00+00:00,302.123,6.84,11.86,47.84626,-54.09684
2023-12-04 04:19:00+00:00,305.6631,6.8,11.86,47.84626,-54.09684
2023-12-04 04:29:00+00:00,310.7663,6.8,11.86,47.84626,-54.09684
2023-12-04 04:39:00+00:00,314.918,6.81,11.86,47.84626,-54.09684
2023-12-04 04:49:00+00:00,310.848,6.8,11.86,47.84626,-54.09684
2023-12-04 04:59:00+00:00,312.9297,6.8,11.86,47.84626,-54.09684
2023-12-04 05:09:00+00:00,317.608,6.8,11.86,47.84626,-54.09684
2023-12-04 05:19:00+00:00,309.4664,6.8,11.86,47.84626,-54.09684
2023-12-04 05:29:00+00:00,296.6896,6.81,11.86,47.84626,-54.09684
2023-12-04 05:39:00+00:00,304.4297,6.85,11.86,47.84626,-54.09684
2023-12-04 05:49:00+00:00,306.8146,6.87,11.86,47.84626,-54.09684
2023-12-04 05:59:00+00:00,299.6346,6.87,11.86,47.84626,-54.09684
2023-12-04 06:09:00+00:00,296.8897,6.88,11.86,47.84626,-54.09684
2023-12-04 06:19:00+00:00,300.1147,6.89,11.86,47.84626,-54.09684
2023-12-04 06:29:00+00:00,292.4864,6.86,11.86,47.84626,-54.09684
2023-12-04 06:39:00+00:00,284.1714,6.83,11.86,47.84626,-54.09684
2023-12-04 06:49:00+00:00,280.2648,6.83,11.86,47.84626,-54.09684
2023-12-04 06:59:00+00:00,283.2081,6.72,11.86,47.84626,-54.09684
2023-12-04 07:09:00+00:00,276.6281,6.8,11.86,47.84626,-54.09684
2023-12-04 07:19:00+00:00,268.693,6.8,11.86,47.84626,-54.09684
2023-12-04 07:29:00+00:00,268.5314,6.8,11.86,47.84626,-54.09684
2023-12-04 07:39:00+00:00,267.3381,6.8,11.86,47.84626,-54.09684
2023-12-04 07:49:00+00:00,258.3997,6.8,11.86,47.84626,-54.09684
2023-12-04 07:59:00+00:00,246.8097,6.8,11.86,47.84626,-54.09684
2023-12-04 08:09:00+00:00,247.0314,6.8,11.86,47.84626,-54.09684
2023-12-04 08:19:00+00:00,246.4865,6.8,11.77,47.84626,-54.09684
2023-12-04 08:29:00+00:00,233.4297,6.8,11.77,47.84626,-54.09684
2023-12-04 08:39:00+00:00,226.6831,6.8,11.77,47.84626,-54.09684
2023-12-04 08:49:00+00:00,241.2631,6.8,11.77,47.84626,-54.09684
2023-12-04 08:59:00+00:00,244.3648,6.8,11.77,47.84626,-54.09684
2023-12-04 09:09:00+00:00,239.5198,6.8,11.77,47.84626,-54.09684
2023-12-04 09:19:00+00:00,247.6298,6.84,11.77,47.84626,-54.09684
2023-12-04 09:29:00+00:00,254.0414,6.87,11.77,47.84626,-54.09684
2023-12-04 09:39:00+00:00,244.2231,6.87,11.77,47.84626,-54.09684
2023-12-04 09:49:00+00:00,232.6581,6.88,11.77,47.84626,-54.09684
2023-12-04 09:59:00+00:00,230.4098,6.88,11.77,47.84626,-54.09684
2023-12-04 10:09:00+00:00,234.9048,6.87,11.77,47.84626,-54.09684
2023-12-04 10:19:00+00:00,234.0314,6.8,11.77,47.84626,-54.09684
2023-12-04 10:29:00+00:00,228.2397,6.8,11.77,47.84626,-54.09684
2023-12-04 10:39:00+00:00,233.9897,6.7,11.77,47.84626,-54.09684
2023-12-04 10:49:00+00:00,243.7797,6.7,11.77,47.84626,-54.09684
2023-12-04 10:59:00+00:00,239.0098,6.73,11.77,47.84626,-54.09684
2023-12-04 11:09:00+00:00,240.3864,6.8,11.77,47.84626,-54.09684
2023-12-04 11:19:00+00:00,250.4914,6.8,11.77,47.84626,-54.09684
2023-12-04 11:29:00+00:00,255.8931,6.73,11.77,47.84626,-54.09684
2023-12-04 11:39:00+00:00,250.5014,6.7,11.77,47.84626,-54.09684
2023-12-04 11:49:00+00:00,251.7647,6.7,11.77,47.84626,-54.09684
2023-12-04 11:59:00+00:00,258.7731,6.67,11.77,47.84626,-54.09684
2023-12-04 12:09:00+00:00,260.1547,6.6,11.77,47.84626,-54.09684
2023-12-04 12:19:01+00:00,254.6914,6.5,11.77,47.84626,-54.09684
2023-12-04 12:29:01+00:00,254.7848,6.4,11.77,47.84626,-54.09684
2023-12-04 12:39:01+00:00,259.4681,6.4,11.77,47.84626,-54.09684
2023-12-04 12:49:01+00:00,267.693,6.2,11.77,47.84626,-54.09684
2023-12-04 12:59:01+00:00,267.0431,6.1,11.77,47.84626,-54.09684
2023-12-04 13:09:01+00:00,272.21299999999997,6.2,11.77,47.84626,-54.09684
2023-12-04 13:19:00+00:00,281.8846,6.3,11.77,47.84626,-54.09684
2023-12-04 13:29:00+00:00,288.4081,6.39,11.77,47.84626,-54.09684
2023-12-04 13:39:00+00:00,285.1697,6.45,11.77,47.84626,-54.09684
2023-12-04 13:49:00+00:00,293.1547,6.4,11.77,47.84626,-54.09684
2023-12-04 13:59:00+00:00,302.4697,6.49,11.77,47.84626,-54.09684
2023-12-04 14:09:00+00:00,307.1213,6.51,11.77,47.84626,-54.09684
2023-12-04 14:19:00+00:00,304.078,6.5,11.77,47.84626,-54.09684
2023-12-04 14:29:00+00:00,313.6914,6.5,11.77,47.84626,-54.09684
2023-12-04 14:39:00+00:00,323.5396,6.5,11.77,47.84626,-54.09684
2023-12-04 14:49:00+00:00,328.7913,6.5,11.77,47.84626,-54.09684
2023-12-04 14:59:00+00:00,335.7429,6.54,11.77,47.84626,-54.09684
2023-12-04 15:09:00+00:00,342.7613,6.56,11.77,47.84626,-54.09684
2023-12-04 15:19:00+00:00,349.1113,6.57,11.77,47.84626,-54.09684
2023-12-04 15:29:00+00:00,349.7213,6.59,11.77,47.84626,-54.09684
2023-12-04 15:39:00+00:00,350.38300000000015,6.6,11.77,47.84626,-54.09684
2023-12-04 15:49:00+00:00,351.0896,6.6,11.77,47.84626,-54.09684
2023-12-04 15:59:00+00:00,338.4697,6.6,11.77,47.84626,-54.09684
2023-12-04 16:09:00+00:00,328.8014,6.6,11.77,47.84626,-54.09684
2023-12-04 16:19:00+00:00,332.9963,6.6,11.77,47.84626,-54.09684
2023-12-04 16:29:00+00:00,334.793,6.55,11.77,47.84626,-54.09684
2023-12-04 16:39:00+00:00,323.348,6.4,11.77,47.84626,-54.09684
2023-12-04 16:49:00+00:00,321.0397,6.3,11.77,47.84626,-54.09684
2023-12-04 16:59:00+00:00,338.1462,6.3,11.77,47.84626,-54.09684
2023-12-04 17:09:00+00:00,339.8263,6.2,11.77,47.84626,-54.09684
2023-12-04 17:19:00+00:00,326.123,6.0,11.77,47.84626,-54.09684
2023-12-04 17:29:00+00:00,329.8796,6.0,11.77,47.84626,-54.09684
2023-12-04 17:39:00+00:00,337.6912,6.05,11.77,47.84626,-54.09684
2023-12-04 17:49:00+00:00,334.6429,5.98,11.77,47.84626,-54.09684
2023-12-04 17:59:00+00:00,327.2413,5.9,11.77,47.84626,-54.09684
2023-12-04 18:09:00+00:00,329.9197,5.9,11.77,47.84626,-54.09684
2023-12-04 18:19:00+00:00,339.4980000000001,5.96,11.77,47.84626,-54.09684
2023-12-04 18:29:00+00:00,332.2530000000001,5.8,11.77,47.84626,-54.09684
2023-12-04 18:39:00+00:00,322.9846,6.0,11.77,47.84626,-54.09684
2023-12-04 18:49:00+00:00,327.1063,6.65,11.77,47.84626,-54.09684
2023-12-04 18:59:00+00:00,334.0847,6.56,11.77,47.84626,-54.09684
2023-12-04 19:09:00+00:00,321.2747,5.9,11.77,47.84626,-54.09684
2023-12-04 19:19:00+00:00,311.5162,6.02,11.77,47.84626,-54.09684
2023-12-04 19:29:00+00:00,314.9196,6.6,11.77,47.84626,-54.09684
2023-12-04 19:39:00+00:00,312.4496,6.58,11.77,47.84626,-54.09684
2023-12-04 19:49:00+00:00,294.6363,5.8,11.77,47.84626,-54.09684
2023-12-04 19:59:00+00:00,277.5131,6.58,11.77,47.84626,-54.09684
2023-12-04 20:09:00+00:00,277.3564,6.7,11.77,47.84626,-54.09684
2023-12-04 20:19:00+00:00,278.5647,6.58,11.77,47.84626,-54.09684
2023-12-04 20:29:00+00:00,267.6464,5.77,11.77,47.84626,-54.09684
2023-12-04 20:39:00+00:00,262.0165,5.6,11.77,47.84626,-54.09684
2023-12-04 20:49:00+00:00,266.4781,5.69,11.77,47.84626,-54.09684
2023-12-04 20:59:00+00:00,271.7147,5.6,11.77,47.84626,-54.09684
2023-12-04 21:09:00+00:00,264.0214,5.56,11.77,47.84626,-54.09684
2023-12-04 21:19:01+00:00,262.3347,5.59,11.77,47.84626,-54.09684
2023-12-04 21:29:01+00:00,266.6231,5.64,11.77,47.84626,-54.09684
2023-12-04 21:39:01+00:00,264.7064,5.65,11.77,47.84626,-54.09684
2023-12-04 21:49:01+00:00,255.5931,5.63,11.77,47.84626,-54.09684
2023-12-04 21:59:01+00:00,257.5364,5.63,11.77,47.84626,-54.09684
2023-12-04 22:09:01+00:00,262.6364,5.68,11.77,47.84626,-54.09684
2023-12-04 22:19:01+00:00,263.0564,5.7,11.77,47.84626,-54.09684
2023-12-04 22:29:01+00:00,260.558,5.7,11.77,47.84626,-54.09684
2023-12-04 22:39:01+00:00,258.2847,5.69,11.77,47.84626,-54.09684
2023-12-04 22:49:01+00:00,254.5247,5.7,11.77,47.84626,-54.09684
2023-12-04 22:59:01+00:00,250.0048,5.7,11.77,47.84626,-54.09684
2023-12-04 23:09:01+00:00,253.398,5.8,11.77,47.84626,-54.09684
2023-12-04 23:19:01+00:00,254.2964,5.8,11.77,47.84626,-54.09684
2023-12-04 23:29:01+00:00,254.7215,5.83,11.77,47.84626,-54.09684
2023-12-04 23:39:01+00:00,254.4564,6.42,11.77,47.84626,-54.09684
2023-12-04 23:49:01+00:00,254.5214,6.7,11.77,47.84626,-54.09684
2023-12-04 23:59:01+00:00,244.9581,6.7,11.77,47.84626,-54.09684
